SWA2215 KBHM-KTPA

Flight info

Callsign SWA2215
Flight time N/A
Altitude 41000
Route GUMMP MGMRY ACORI MAATY5
Aircraft B737/M-SADE2E3GIJ4RWZ/LB1D1

Departure

Time 2026-04-23 23:05
Airport Birmingham-Shuttlesworth International Airport (KBHM)

Arrival

Time N/A
Airport Tampa International Airport (KTPA)
Time Latitude Longitude Altitude Speed Heading
2026-04-23 22:53 33.56169 -86.75411 607 ft 0 kts 167°
2026-04-23 22:58 33.56171 -86.75412 607 ft 2 kts 167°
2026-04-23 22:58 33.56187 -86.75416 622 ft 2 kts 167°
2026-04-23 22:59 33.56203 -86.75420 611 ft 2 kts 167°
2026-04-23 22:59 33.56219 -86.75425 621 ft 2 kts 167°
2026-04-23 22:59 33.56235 -86.75429 621 ft 2 kts 167°
2026-04-23 22:59 33.56239 -86.75430 620 ft 0 kts 167°
2026-04-23 23:00 33.56236 -86.75421 620 ft 4 kts 103°
2026-04-23 23:01 33.56280 -86.75366 607 ft 12 kts 36°
2026-04-23 23:01 33.56358 -86.75349 617 ft 12 kts 333°
2026-04-23 23:01 33.56431 -86.75303 611 ft 20 kts 56°
2026-04-23 23:01 33.56513 -86.75162 609 ft 20 kts 55°
2026-04-23 23:02 33.56587 -86.75029 608 ft 18 kts 64°
2026-04-23 23:02 33.56604 -86.74890 607 ft 16 kts 84°
2026-04-23 23:02 33.56664 -86.74755 608 ft 27 kts 54°
2026-04-23 23:02 33.56775 -86.74562 609 ft 27 kts 56°
2026-04-23 23:03 33.56880 -86.74385 607 ft 25 kts 54°
2026-04-23 23:03 33.56975 -86.74221 616 ft 23 kts 56°
2026-04-23 23:03 33.57063 -86.74063 609 ft 22 kts 56°
2026-04-23 23:03 33.57150 -86.73912 609 ft 22 kts 55°
2026-04-23 23:04 33.57239 -86.73847 615 ft 15 kts 337°
2026-04-23 23:04 33.57315 -86.73930 610 ft 15 kts 284°
2026-04-23 23:04 33.57246 -86.74094 610 ft 46 kts 235°
2026-04-23 23:04 33.56918 -86.74660 614 ft 117 kts 236°
2026-04-23 23:05 33.56348 -86.75640 697 ft 163 kts 233°
2026-04-23 23:05 33.55665 -86.76795 1296 ft 174 kts 232°
2026-04-23 23:05 33.54941 -86.77954 2075 ft 173 kts 232°
2026-04-23 23:05 33.54183 -86.79185 2469 ft 202 kts 231°
2026-04-23 23:06 33.52991 -86.80198 2693 ft 227 kts 193°
2026-04-23 23:06 33.51339 -86.80079 3036 ft 252 kts 165°
2026-04-23 23:06 33.49653 -86.79385 3812 ft 259 kts 160°
2026-04-23 23:06 33.47959 -86.78600 4709 ft 263 kts 159°
2026-04-23 23:07 33.46240 -86.77807 5574 ft 266 kts 160°
2026-04-23 23:07 33.45087 -86.77287 6174 ft 269 kts 160°
2026-04-23 23:07 33.43298 -86.76499 7076 ft 272 kts 160°
2026-04-23 23:07 33.41530 -86.75737 7984 ft 275 kts 161°
2026-04-23 23:08 33.39717 -86.74968 8946 ft 278 kts 161°
2026-04-23 23:08 33.37875 -86.74197 9924 ft 282 kts 161°
2026-04-23 23:08 33.35984 -86.73410 10566 ft 298 kts 161°
2026-04-23 23:08 33.33933 -86.72563 10770 ft 326 kts 161°
2026-04-23 23:09 33.31725 -86.71655 11239 ft 342 kts 161°
2026-04-23 23:09 33.29441 -86.70717 11973 ft 350 kts 161°
2026-04-23 23:09 33.27115 -86.69764 12759 ft 356 kts 161°
2026-04-23 23:09 33.24747 -86.68796 13541 ft 363 kts 161°
2026-04-23 23:10 33.22329 -86.67808 14297 ft 370 kts 161°
2026-04-23 23:10 33.19880 -86.66807 15109 ft 374 kts 161°
2026-04-23 23:10 33.17397 -86.65794 15873 ft 380 kts 161°
2026-04-23 23:10 33.14889 -86.64770 16624 ft 385 kts 161°
2026-04-23 23:11 33.12327 -86.63726 17387 ft 391 kts 161°
2026-04-23 23:11 33.09734 -86.62670 18135 ft 396 kts 161°
2026-04-23 23:11 33.07106 -86.61603 18792 ft 402 kts 162°
2026-04-23 23:11 33.04429 -86.60598 19457 ft 405 kts 164°
2026-04-23 23:12 33.01710 -86.59644 20150 ft 409 kts 164°
2026-04-23 23:12 32.98958 -86.58700 20819 ft 413 kts 165°
2026-04-23 23:12 32.96188 -86.57751 21471 ft 417 kts 165°
2026-04-23 23:12 32.93384 -86.56784 22102 ft 421 kts 164°
2026-04-23 23:13 32.90557 -86.55803 22715 ft 426 kts 164°
2026-04-23 23:13 32.87735 -86.54819 23320 ft 430 kts 164°
2026-04-23 23:13 32.84853 -86.53811 23866 ft 434 kts 164°
2026-04-23 23:13 32.81950 -86.52794 24373 ft 437 kts 164°
2026-04-23 23:14 32.79016 -86.51765 24883 ft 441 kts 164°
2026-04-23 23:14 32.76065 -86.50732 25386 ft 444 kts 164°
2026-04-23 23:14 32.73092 -86.49692 25869 ft 447 kts 164°
2026-04-23 23:14 32.70095 -86.48644 26348 ft 451 kts 164°
2026-04-23 23:15 32.67078 -86.47590 26824 ft 454 kts 163°
2026-04-23 23:15 32.64036 -86.46528 27278 ft 457 kts 163°
2026-04-23 23:15 32.60974 -86.45460 27731 ft 460 kts 163°
2026-04-23 23:15 32.57883 -86.44383 28166 ft 463 kts 163°
2026-04-23 23:16 32.54775 -86.43300 28594 ft 466 kts 163°
2026-04-23 23:16 32.51649 -86.42212 29021 ft 469 kts 163°
2026-04-23 23:16 32.48501 -86.41117 29437 ft 472 kts 163°
2026-04-23 23:16 32.45343 -86.40020 29834 ft 475 kts 163°
2026-04-23 23:17 32.42203 -86.38929 30190 ft 478 kts 163°
2026-04-23 23:17 32.38996 -86.37817 30513 ft 481 kts 163°
2026-04-23 23:17 32.35778 -86.36700 30847 ft 483 kts 163°
2026-04-23 23:17 32.32549 -86.35581 31218 ft 484 kts 163°
2026-04-23 23:18 32.29317 -86.34462 31623 ft 484 kts 163°
2026-04-23 23:18 32.26098 -86.33337 32086 ft 482 kts 161°
2026-04-23 23:18 32.23002 -86.31840 32526 ft 480 kts 152°
2026-04-23 23:18 32.20127 -86.29859 32930 ft 479 kts 144°
2026-04-23 23:19 32.17532 -86.27404 33291 ft 478 kts 138°
2026-04-23 23:19 32.15045 -86.24801 33679 ft 477 kts 137°
2026-04-23 23:19 32.12570 -86.22173 34049 ft 477 kts 137°
2026-04-23 23:19 32.10102 -86.19560 34351 ft 477 kts 137°
2026-04-23 23:20 32.07624 -86.16961 34674 ft 476 kts 137°
2026-04-23 23:20 32.05169 -86.14409 35009 ft 475 kts 138°
2026-04-23 23:20 32.02688 -86.11846 35343 ft 474 kts 138°
2026-04-23 23:20 32.00207 -86.09293 35643 ft 474 kts 138°
2026-04-23 23:21 31.97723 -86.06740 35924 ft 474 kts 138°
2026-04-23 23:21 31.95236 -86.04187 36214 ft 473 kts 138°
2026-04-23 23:21 31.92762 -86.01647 36531 ft 472 kts 138°
2026-04-23 23:21 31.90290 -85.99109 36828 ft 471 kts 138°
2026-04-23 23:22 31.87823 -85.96579 37096 ft 471 kts 138°
2026-04-23 23:22 31.85352 -85.94045 37362 ft 471 kts 138°
2026-04-23 23:22 31.82887 -85.91519 37652 ft 470 kts 139°
2026-04-23 23:22 31.80423 -85.88996 37913 ft 469 kts 139°
2026-04-23 23:23 31.77959 -85.86476 38164 ft 469 kts 139°
2026-04-23 23:23 31.75496 -85.83951 38423 ft 469 kts 139°
2026-04-23 23:23 31.73082 -85.81462 38689 ft 468 kts 138°
2026-04-23 23:23 31.70638 -85.78936 38880 ft 468 kts 139°
2026-04-23 23:24 31.68192 -85.76407 39018 ft 469 kts 139°
2026-04-23 23:24 31.65734 -85.73867 39151 ft 470 kts 139°
2026-04-23 23:24 31.63276 -85.71330 39332 ft 470 kts 139°
2026-04-23 23:24 31.60816 -85.68795 39512 ft 470 kts 139°
2026-04-23 23:25 31.58356 -85.66262 39659 ft 471 kts 139°
2026-04-23 23:25 31.55889 -85.63723 39790 ft 472 kts 139°
2026-04-23 23:25 31.53417 -85.61182 39948 ft 472 kts 139°
2026-04-23 23:25 31.50944 -85.58643 40105 ft 472 kts 139°
2026-04-23 23:26 31.48468 -85.56101 40245 ft 473 kts 140°
2026-04-23 23:26 31.45998 -85.53568 40393 ft 473 kts 140°
2026-04-23 23:26 31.43518 -85.51026 40590 ft 473 kts 140°
2026-04-23 23:26 31.41076 -85.48526 40734 ft 473 kts 140°
2026-04-23 23:27 31.38594 -85.45985 40849 ft 474 kts 140°
2026-04-23 23:27 31.36108 -85.43443 40982 ft 475 kts 140°
2026-04-23 23:27 31.33621 -85.40901 41080 ft 476 kts 140°
2026-04-23 23:28 31.28615 -85.35791 41078 ft 476 kts 140°
2026-04-23 23:28 31.23635 -85.30714 41068 ft 473 kts 140°
2026-04-23 23:29 31.18682 -85.25673 41061 ft 471 kts 140°
2026-04-23 23:29 31.13749 -85.20659 41055 ft 469 kts 140°
2026-04-23 23:30 31.08826 -85.15663 41054 ft 469 kts 140°
2026-04-23 23:30 31.03897 -85.10668 41052 ft 470 kts 140°
2026-04-23 23:31 30.98955 -85.05666 41055 ft 471 kts 140°
2026-04-23 23:31 30.93990 -85.00648 41052 ft 473 kts 140°
2026-04-23 23:32 30.89012 -84.95623 41047 ft 475 kts 141°
2026-04-23 23:32 30.84044 -84.90617 41069 ft 475 kts 140°
2026-04-23 23:33 30.79052 -84.85590 41041 ft 474 kts 140°
2026-04-23 23:33 30.74070 -84.80589 41041 ft 472 kts 140°
2026-04-23 23:34 30.69112 -84.75625 41042 ft 469 kts 140°
2026-04-23 23:34 30.64170 -84.70682 41039 ft 467 kts 140°
2026-04-23 23:35 30.59258 -84.65773 41041 ft 465 kts 140°
2026-04-23 23:35 30.54361 -84.60886 41049 ft 463 kts 140°
2026-04-23 23:36 30.49475 -84.56017 41056 ft 463 kts 140°
2026-04-23 23:36 30.44584 -84.51149 41058 ft 463 kts 140°
2026-04-23 23:37 30.39713 -84.46306 41062 ft 464 kts 140°
2026-04-23 23:37 30.34800 -84.41429 41064 ft 467 kts 140°
2026-04-23 23:38 30.29850 -84.36521 41056 ft 470 kts 140°
2026-04-23 23:38 30.24877 -84.31591 41057 ft 471 kts 140°
2026-04-23 23:39 30.19944 -84.26703 41052 ft 471 kts 140°
2026-04-23 23:39 30.14960 -84.21773 41061 ft 471 kts 140°
2026-04-23 23:40 30.09978 -84.16851 41058 ft 471 kts 140°
2026-04-23 23:40 30.05006 -84.11946 41061 ft 470 kts 140°
2026-04-23 23:41 30.00035 -84.07049 41058 ft 469 kts 140°
2026-04-23 23:41 29.95068 -84.02161 41061 ft 469 kts 140°
2026-04-23 23:42 29.90111 -83.97290 41061 ft 468 kts 140°
2026-04-23 23:42 29.85163 -83.92434 41066 ft 467 kts 140°
2026-04-23 23:43 29.80036 -83.87857 41064 ft 465 kts 150°
2026-04-23 23:43 29.74432 -83.84273 41059 ft 464 kts 153°
2026-04-23 23:44 29.68729 -83.80775 41066 ft 464 kts 153°
2026-04-23 23:44 29.65897 -83.79000 40947 ft 467 kts 153°
2026-04-23 23:44 29.63027 -83.77177 40383 ft 473 kts 152°
2026-04-23 23:44 29.60156 -83.75337 39820 ft 471 kts 152°
2026-04-23 23:45 29.57305 -83.73502 39232 ft 470 kts 151°
2026-04-23 23:45 29.54453 -83.71664 38583 ft 469 kts 151°
2026-04-23 23:45 29.51596 -83.69826 37822 ft 469 kts 151°
2026-04-23 23:45 29.48753 -83.67999 37158 ft 467 kts 151°
2026-04-23 23:46 29.45918 -83.66179 36461 ft 467 kts 151°
2026-04-23 23:46 29.43087 -83.64364 35775 ft 466 kts 151°
2026-04-23 23:46 29.40248 -83.62547 35010 ft 468 kts 151°
2026-04-23 23:46 29.37398 -83.60723 34235 ft 470 kts 151°
2026-04-23 23:47 29.34534 -83.58891 33299 ft 473 kts 152°
2026-04-23 23:47 29.31655 -83.57051 32396 ft 474 kts 152°
2026-04-23 23:47 29.28779 -83.55212 31827 ft 468 kts 152°
2026-04-23 23:47 29.25941 -83.53400 31187 ft 465 kts 152°
2026-04-23 23:48 29.23166 -83.51629 30596 ft 460 kts 153°
2026-04-23 23:48 29.20376 -83.49852 30001 ft 456 kts 153°
2026-04-23 23:48 29.17615 -83.48095 29329 ft 452 kts 153°
2026-04-23 23:48 29.14886 -83.46360 28713 ft 446 kts 153°
2026-04-23 23:49 29.09523 -83.42953 27500 ft 437 kts 153°
2026-04-23 23:49 29.06877 -83.41274 26886 ft 433 kts 153°
2026-04-23 23:49 29.04259 -83.39613 26293 ft 429 kts 154°
2026-04-23 23:50 29.01650 -83.37958 25708 ft 425 kts 154°
2026-04-23 23:50 28.99071 -83.36323 25129 ft 422 kts 153°
2026-04-23 23:50 28.96546 -83.34722 24557 ft 419 kts 153°
2026-04-23 23:50 28.93967 -83.33087 23949 ft 417 kts 153°
2026-04-23 23:51 28.91469 -83.31505 23317 ft 415 kts 153°
2026-04-23 23:51 28.88946 -83.29907 22671 ft 412 kts 153°
2026-04-23 23:51 28.86452 -83.28328 22056 ft 408 kts 153°
2026-04-23 23:51 28.83974 -83.26760 21467 ft 404 kts 153°
2026-04-23 23:52 28.81522 -83.25210 20887 ft 401 kts 153°
2026-04-23 23:52 28.79096 -83.23677 20311 ft 397 kts 153°
2026-04-23 23:52 28.76684 -83.22154 19749 ft 394 kts 153°
2026-04-23 23:52 28.74295 -83.20645 19178 ft 391 kts 153°
2026-04-23 23:53 28.72719 -83.19651 18793 ft 389 kts 153°
2026-04-23 23:53 28.70354 -83.18160 18189 ft 388 kts 153°
2026-04-23 23:53 28.68003 -83.16678 17556 ft 385 kts 153°
2026-04-23 23:53 28.65676 -83.15211 16960 ft 381 kts 153°
2026-04-23 23:54 28.62616 -83.13284 16191 ft 376 kts 153°
2026-04-23 23:54 28.60335 -83.11848 15609 ft 373 kts 153°
2026-04-23 23:54 28.58816 -83.10893 15209 ft 365 kts 153°
2026-04-23 23:54 28.56631 -83.09518 14623 ft 353 kts 153°